Regional Weather Roundup
Issued by NWS

Home | Current Version | Previous Version | Graphics & Text | Print | Product List | Glossary On
Versions: 1 2 3 4 5 6 7 8 9 10 11 12 13 14 15 16 17 18 19 20 21 22 23 24 25 26 27 28 29 30 31 32 33 34 35 36 37 38 39 40 41 42 43 44 45 46 47 48 49 50
000
ASUS43 KMPX 271701
RWRMN
WEATHER ROUNDUP FOR MINNESOTA
NATIONAL WEATHER SERVICE TWIN CITIES/CHANHASSEN MN
1200 PM CDT WED JUL 27 2016


NOTE: "FAIR" INDICATES FEW OR NO CLOUDS BELOW 12,000 FEET WITH NO
SIGNIFICANT WEATHER AND/OR OBSTRUCTIONS TO VISIBILITY. N/A MEANS
CURRENT SKY AND/OR WEATHER CONDITIONS ARE NOT AVAILABLE.

MNZ060>063-068>070-271800-
   Twin Cities Metro

CITY           SKY/WX    TMP DP  RH WIND       PRES   REMARKS
TWIN CITIES    CLOUDY    80  68  66 SE6       29.95S
ST PAUL        CLOUDY    78  69  73 SE6       29.95F
CRYSTAL        CLOUDY    80  66  62 SE7       29.94R
LAKEVILLE      CLOUDY    75  68  78 S5        29.96R
EDEN PRAIRIE   PTSUNNY   80  68  66 S7        29.95R
LAKEVILLE      CLOUDY    75  68  78 S5        29.96R
SOUTH ST PAUL  PTSUNNY   78  67  68 SE5       29.95S
LAKE ELMO      FAIR      77  70  78 S6        29.97S
$$
MNZ001>005-007-008-013>017-022>024-027-028-271800-
   Northwest Minnesota

CITY           SKY/WX    TMP DP  RH WIND       PRES   REMARKS
HALLOCK        MOSUNNY   73  59  60 N15       30.06F
ROSEAU         SUNNY     73  64  73 NE10      30.06S
WARROAD        MOSUNNY   72  63  73 N10G17    30.07S
THIEF RVR FALL SUNNY     72  55  55 N12       30.05S
CROOKSTON      SUNNY     72  61  68 N14       30.05S
FOSSTON        MOSUNNY   73  61  64 N9        30.03S
DETROIT LAKES  MOSUNNY   72  63  73 N9        30.03S
MOORHEAD       SUNNY     73  61  64 N15       30.04R
PARK RAPIDS    CLOUDY    70  62  76 VRB3      30.03R
MAHNOMEN       FAIR      73  57  58 N9        30.02F
$$
MNZ006-009>011-018-025>026-271800-
   North Central Minnesota

CITY           SKY/WX    TMP DP  RH WIND       PRES   REMARKS
BAUDETTE       PTSUNNY   75  60  59 E8        30.05R
FLAG ISLAND    SUNNY     70  57  64 N13       30.07S
INTL FALLS     PTSUNNY   71  59  65 E6        30.06R
WASKISH        CLOUDY    73  61  64 E8        30.04R
BIG FORK       PTSUNNY   68  61  77 E6        30.04S
LONGVILLE      LGT RAIN  64  64 100 CALM      30.02R
GRAND RAPIDS   CLOUDY    64  61  90 VRB3      30.05R
CRANE LAKE     CLOUDY    66  61  82 N1        30.07S
ORR            CLOUDY    66  61  82 CALM      30.02F
COOK           CLOUDY    64  63  94 SE5       30.05S
WALKER         CLOUDY    66  63  90 NE7       30.03R
$$
MNZ012-019>021-037-271800-
   Northeast Minnesota

CITY           SKY/WX    TMP DP  RH WIND       PRES   REMARKS
DULUTH         CLOUDY    66  56  70 E9        30.04R
ELY            CLOUDY    66  61  82 CALM      30.05R
HIBBING        LGT RAIN  62  60  93 SE5       30.04R
EVELETH        RAIN      61  59  94 NE5       30.04F
DULUTH HARBOR  DRIZZLE   64  61  88 NE14      30.04R
TWO HARBORS    CLOUDY    70  59  68 E10       30.01S
SILVER BAY     LGT RAIN  64  57  77 NE5       30.02S
GRAND MARAIS     N/A     64  55  72 NE9       30.04S
G MARAIS ARPRT CLOUDY    66  52  59 E7        30.08S
$$
MNZ029>031-032-039>041-046>048-054>057-064-271800-
   West Central Minnesota

CITY           SKY/WX    TMP DP  RH WIND       PRES   REMARKS
FERGUS FALLS   MOSUNNY   73  64  73 N6        30.02R
WHEATON        CLOUDY    75  66  73 NW6       30.02S
MORRIS         MOSUNNY   75  66  73 N7        30.00S
ALEXANDRIA     CLOUDY    71  63  75 VRB3      30.02S
ELBOW LAKE     FAIR      73  65  76 E9        30.01R
WADENA         CLOUDY    68  64  88 VRB7      30.00F
GLENWOOD       CLOUDY    72  66  83 N6        30.01R
APPLETON       MOSUNNY   75  64  69 N10G17    30.00R
BENSON         MOSUNNY   77  64  65 N8        29.99S
ORTONVILLE     PTSUNNY   73  64  73 NW8       30.01S
MADISON        SUNNY     75  64  69 NW10      30.01R
WILLMAR        FAIR      77  66  69 N6        30.00R
$$
MNZ033>034-036-042>043-049>051-058-059-271800-
   Central Minnesota

CITY           SKY/WX    TMP DP  RH WIND       PRES   REMARKS
ST CLOUD       TSTM      70  69  97 NW8       29.98R FOG
SAUK CENTRE    PTSUNNY   71  65  83 NE6       30.00R
PAYNESVILLE    CLOUDY    75  69  81 N9        29.99R
AITKIN         MIX PCPN  70  64  83 N9        30.00S
PINE RIVER     RAIN      64  64 100 NE5       30.05S
BRAINERD       LGT RAIN  66  64  93 N7        30.01F FOG
STAPLES        CLOUDY    66  63  88 N3        30.01R
LONG PRAIRIE   PTSUNNY   68  64  88 N8        30.01S
LITTLE FALLS   DRIZZLE   68  63  83 NE5       30.00R
LITCHFIELD     RAIN      72  70  94 N8        29.98S
BUFFALO        LGT RAIN  76  69  79 CALM      29.95F
MAPLE LAKE     DRIZZLE   74  71  92 NW6       29.96F
HUTCHINSON     PTSUNNY   74  67  77 NW8       29.97S
$$
MNZ037-044-045-052-053-271800-
   East Central Minnesota

CITY           SKY/WX    TMP DP  RH WIND       PRES   REMARKS
PRINCETON      CLOUDY    75  70  83 N3        29.96F
MORA           CLOUDY    70  66  88 CALM      30.00R
CAMBRIDGE      CLOUDY    79  66  65 CALM      29.94F
RUSH CITY      CLOUDY    74  70  87 CALM      29.97R
MOOSE LAKE     LGT RAIN  63  61  94 NE9G16    29.98R
HINCKLEY       CLOUDY    70  70 100 N5        29.98R
CLOQUET        LGT RAIN  63  59  88 E8        30.03S
MCGREGOR       CLOUDY    64  63  94 CALM      30.02R
$$
MNZ071>073-080-081-089-090-097-098-271800-
   Southwest Minnesota

CITY           SKY/WX    TMP DP  RH WIND       PRES   REMARKS
MONTEVIDEO     PTSUNNY   77  66  69 N10G16    30.02R
GRANITE FALLS  CLOUDY    78  67  70 NW10      30.01R
CANBY          MOSUNNY   78  66  66 NW10      30.03R
MARSHALL       PTSUNNY   76  66  71 N10       30.00S
REDWOOD FALLS  PTSUNNY   78  67  68 NW8       29.98R
OLIVIA         PTSUNNY   77  64  65 NW7       29.98R
PIPESTONE      MOSUNNY   75  66  73 NE8       30.03R
WINDOM         PTSUNNY   79  66  65 W8        30.00R
WORTHINGTON    CLOUDY    79  69  71 W10       30.02R
JACKSON        CLOUDY    77  64  65 SW9       30.01R
TRACY          CLOUDY    75  68  79 NW7       30.01S
SLAYTON        CLOUDY    74  67  78 NW12      30.03S HAZE
$$
MNZ065>067-074>077-082>085-091>093-271800-
   South Central Minnesota

CITY           SKY/WX    TMP DP  RH WIND       PRES   REMARKS
MANKATO        CLOUDY    77  66  69 SW12      29.98R
NEW ULM        CLOUDY    77  70  78 W8        29.97R
ST JAMES       MOSUNNY   73  64  73 SW6       29.99R
FAIRMONT       CLOUDY    75  66  73 S17       29.97F
GLENCOE        PTSUNNY   78  72  82 S6        29.95S
FARIBAULT      PTSUNNY   79  70  73 S6        29.96S
OWATONNA       CLOUDY    77  66  69 S9        29.98S
WASECA         CLOUDY    73  68  83 S12       29.98S
ALBERT LEA     CLOUDY    75  68  78 S10       29.99R
$$
MNZ078>079-086>088-094>096-271800-
   Southeast Minnesota

CITY           SKY/WX    TMP DP  RH WIND       PRES   REMARKS
ROCHESTER      MOSUNNY   78  68  71 S8        30.01R
RED WING       PTSUNNY   81  68  65 S7        29.95S
DODGE CENTER   CLOUDY    79  66  65 S12       30.00S
WINONA         PTSUNNY   81  64  57 SW3       29.98S
AUSTIN         CLOUDY    75  66  73 S3        30.00S
PRESTON        CLOUDY    78  65  64 S7        30.02R
$$
ABBREVIATIONS USED IN REMARKS
   TC - TEMPERATURES IN CELSIUS
  WCI - WIND CHILL INDEX
   HX - HEAT INDEX
  VSB - VISIBILITY
$$




USA.gov is the U.S. government's official web portal to all federal, state and local government web resources and services.